Overview Statistics Trail Chart Weather Telemetry Raw packets
 

This is the latest recevied weather packets stored in our database for station/object IU5GBO-13. If no packets are shown the sender has not sent any weather packets the latest 10 day(s).

<< 47 48 49 50 51 52 53 >>
Time Temp. Humidity Pressure Rain* Wind** Luminosity Snow
1777337770 11.11° C 78% 1018.2 hPa - - - -
1777337171 11.11° C 78% 1018.3 hPa - - - -
1777336570 11.11° C 78% 1018.3 hPa - - - -
1777335971 11.11° C 78% 1018.3 hPa - - - -
1777335370 11.11° C 77% 1018.5 hPa - - - -
1777334771 11.67° C 77% 1018.6 hPa - - - -
1777334171 11.11° C 77% 1018.7 hPa - - - -
1777333570 11.67° C 75% 1018.6 hPa - - - -
1777332971 11.67° C 76% 1018.7 hPa - - - -
1777332370 12.22° C 74% 1018.8 hPa - - - -
1777331771 12.22° C 72% 1018.7 hPa - - - -
1777331170 12.22° C 74% 1018.7 hPa - - - -
1777330571 12.78° C 73% 1018.7 hPa - - - -
1777329970 12.78° C 73% 1018.8 hPa - - - -
1777329371 12.22° C 73% 1018.8 hPa - - - -
1777328770 12.78° C 72% 1018.8 hPa - - - -
1777328170 13.33° C 70% 1018.7 hPa - - - -
1777327571 13.33° C 70% 1018.8 hPa - - - -
1777326970 13.33° C 68% 1018.8 hPa - - - -
1777326370 13.89° C 69% 1018.9 hPa - - - -
1777325770 13.89° C 69% 1018.9 hPa - - - -
1777325170 13.89° C 68% 1018.9 hPa - - - -
1777324570 14.44° C 67% 1018.9 hPa - - - -
1777323970 14.44° C 67% 1018.9 hPa - - - -
1777323370 15° C 66% 1018.9 hPa - - - -

* Rain since midnight (hover to see other rain measurements)
** Current wind speed in m/s (hover to see current wind gust speed)